Terminal Aerodrome Forecast
Issued by NWS Sioux Falls, SD

Home | Current Version | Previous Version | Graphics & Text | Print | Product List | Glossary On
Versions: 1 2 3 4 5 6 7 8 9 10 11 12 13 14 15 16 17 18 19 20 21 22 23 24 25 26 27 28 29 30 31 32 33 34 35
000
FTUS43 KFSD 180540
TAFSUX
TAF
KSUX 180540Z 1806/1906 11005KT P6SM OVC070
     FM181000 12006KT P6SM SCT012 OVC040
     FM181400 14005KT P6SM OVC008
      TEMPO 1814/1818 4SM -SN
     FM190000 17005KT P6SM OVC020=

USA.gov is the U.S. government's official web portal to all federal, state and local government web resources and services.